Wind_Speed
29 29 29 33 35 36 38 38 37 33 34 36 37 37 37 38 36 34 33 32 31 31 28 27 22 19 17 16 13 11 12 6 2 1 8 14 15 13 15 16 16 18 19
30 31 29 31 26 27 30 33 33 31 35 37 38 31 32 32 36 35 34 36 37 36 34 31 28 25 19 13 11 8 10 5 3 2 7 8 10 12 15 17 15 16 19
32 33 31 26 19 23 29 29 29 32 34 36 38 35 34 35 35 35 37 40 40 41 38 34 30 29 26 21 16 12 7 4 6 4 6 7 9 10 15 13 16 17 19
31 33 33 28 24 25 26 28 34 33 36 39 36 33 33 34 35 37 39 43 42 40 36 34 36 29 27 24 19 15 11 8 3 3 8 9 8 11 12 16 20 17 24
30 30 33 33 28 23 25 29 35 36 38 36 33 32 32 35 38 41 43 48 47 42 39 36 35 28 23 22 19 16 12 8 6 4 7 7 7 10 13 14 16 22 25
28 29 30 30 25 18 21 27 28 28 29 31 30 33 34 33 39 46 49 45 43 42 39 31 28 27 24 20 16 14 11 9 6 5 5 5 6 9 11 13 15 20 13
25 28 27 26 25 18 17 19 22 24 27 27 28 32 32 32 46 51 52 44 43 40 41 37 31 26 24 20 16 13 10 7 6 5 5 4 6 8 11 14 16 17 18
26 26 25 22 23 21 17 19 20 23 27 28 30 31 32 38 53 55 52 45 41 44 41 35 34 32 24 23 17 12 9 7 6 5 5 6 5 7 10 11 15 19 19
25 27 26 24 20 22 20 20 24 23 22 25 29 31 34 41 54 56 51 43 39 38 37 36 35 28 24 19 17 14 10 7 5 2 4 5 6 7 10 11 12 14 15
27 28 29 26 24 21 26 28 25 23 22 27 29 32 36 43 56 57 47 37 36 33 32 31 28 27 21 19 16 16 12 8 4 1 2 4 5 5 7 9 11 12 14
28 29 30 30 26 27 27 27 25 31 25 24 26 28 33 43 49 50 42 41 39 38 31 31 26 20 20 18 15 13 9 6 2 2 3 2 2 5 8 12 11 9 12
27 30 32 30 28 24 27 24 25 30 30 29 20 21 28 34 44 47 38 37 39 39 32 30 25 22 20 18 14 12 9 6 3 3 3 4 5 8 11 12 12 10 10
28 30 30 27 27 22 26 25 25 25 25 28 28 23 22 30 35 43 40 38 37 34 36 31 26 24 22 18 16 13 9 6 4 4 2 3 5 8 9 13 12 15 11
26 27 26 22 21 21 23 26 28 28 23 23 25 28 27 31 34 39 40 41 38 38 31 28 28 25 20 19 16 13 11 8 5 4 2 3 6 7 9 13 11 14 13
22 24 22 19 19 20 20 24 27 31 40 38 33 36 36 31 34 43 40 39 37 34 33 28 25 22 19 16 14 12 12 10 7 3 2 4 5 7 9 11 10 11 12
20 18 17 13 13 12 16 13 13 19 25 28 31 36 30 34 45 42 42 40 37 36 29 25 21 20 19 18 17 13 11 9 8 5 3 3 4 6 8 8 9 10 10
17 16 15 9 8 10 13 15 15 20 23 29 35 40 44 53 47 45 43 40 37 33 25 20 20 19 18 16 16 14 11 9 9 6 4 2 3 5 7 8 9 9 11
13 8 7 6 10 12 12 15 21 22 20 25 37 47 50 50 47 45 42 38 30 18 21 20 19 19 19 17 17 14 12 10 8 6 4 2 2 5 6 7 8 10 10
4 4 7 10 13 15 17 18 19 21 23 25 30 37 45 45 43 40 38 29 23 19 17 16 18 19 17 17 16 15 13 10 8 6 5 3 3 4 5 5 6 7 7
13 13 15 16 17 18 17 18 16 19 21 23 27 31 37 41 34 28 23 22 21 18 20 20 19 18 18 18 17 15 12 11 9 6 6 5 3 3 3 3 5 5 6
19 21 21 22 20 18 19 18 18 20 20 20 21 28 29 29 26 23 20 19 22 21 20 18 19 18 18 17 15 13 11 10 10 8 8 8 7 4 3 2 2 3 3
22 21 22 21 21 21 22 23 23 23 23 24 26 29 30 28 25 23 19 17 17 16 16 17 17 17 17 17 16 15 12 11 10 10 9 10 8 6 4 3 1 1 1
27 26 26 25 24 25 25 23 22 21 22 23 23 22 24 24 25 20 17 14 15 13 14 14 15 16 15 15 15 13 13 13 11 11 10 10 9 7 6 4 4 2 1
32 30 28 28 28 26 25 24 24 23 22 21 22 20 18 16 13 11 11 12 13 13 13 13 15 16 14 14 14 14 14 15 15 13 12 12 11 10 7 5 5 5 4
33 31 31 29 27 25 26 24 23 22 21 18 16 14 12 9 6 4 5 6 8 9 10 12 14 15 16 17 16 15 16 17 20 20 17 15 12 12 9 6 5 5 4
34 34 32 30 29 27 26 25 25 25 24 23 22 19 16 14 12 10 8 6 6 6 6 7 8 9 11 12 13 12 15 18 20 24 23 20 17 15 12 8 6 4 4
Wind_Direction
320 305 295 283 265 250 242 240 235 227 216 208 206 212 207 204 202 201 198 191 177 174 173 164 149 148 143 137 135 135 128 140 135 47 317 298 305 317 323 328 332 328 324
324 318 306 297 272 247 242 240 237 218 213 205 211 205 200 195 199 190 175 172 173 168 166 158 149 146 142 141 137 131 113 129 127 171 291 283 292 315 323 330 333 327 321
328 324 317 308 265 246 242 238 233 211 209 209 208 201 192 192 186 180 174 171 174 171 166 160 155 162 157 163 163 149 158 186 210 145 271 279 300 310 330 334 330 327 326
333 326 319 317 291 253 242 228 218 213 211 206 203 195 188 180 176 171 172 169 168 168 168 168 169 171 170 166 168 160 177 176 173 200 269 284 299 322 336 334 334 337 331
333 333 323 317 307 281 231 218 213 211 205 201 189 187 176 177 174 169 170 167 165 166 169 171 171 172 172 173 168 173 183 151 180 210 253 274 309 336 341 335 332 327 331
328 332 332 318 304 290 248 207 203 193 189 188 180 175 172 173 173 174 169 164 163 160 159 160 165 165 169 168 169 184 176 153 175 209 243 281 316 331 334 336 330 334 338
321 329 332 325 304 283 251 217 192 183 181 174 175 176 170 172 175 177 169 164 161 159 160 161 161 171 164 161 175 159 148 166 187 211 253 293 312 337 334 336 323 329 321
313 319 323 323 306 268 235 211 194 189 184 177 177 177 172 176 177 176 168 164 160 163 168 169 172 168 170 170 159 152 161 182 200 219 258 286 303 331 332 325 319 320 320
306 311 313 311 299 260 217 202 190 185 185 184 179 175 173 174 176 173 167 160 158 161 169 173 173 170 168 168 155 156 158 170 186 246 274 277 302 319 325 328 333 340 335
306 304 305 301 295 256 221 203 191 200 198 187 179 181 177 172 175 176 164 157 148 150 160 168 169 164 166 159 154 157 156 167 176 260 270 256 287 314 336 345 337 336 334
299 299 299 295 284 270 241 221 199 189 183 189 177 175 176 174 170 168 160 155 153 149 152 158 161 165 160 159 155 152 149 149 143 358 0 6 330 354 358 352 351 343 318
298 298 294 293 291 264 221 202 192 180 176 154 174 162 165 166 166 167 156 152 155 151 151 158 159 162 158 155 153 149 142 138 119 64 56 20 351 5 349 344 2 356 332
297 295 293 298 291 254 210 189 179 179 168 166 154 156 157 151 152 158 164 165 157 149 157 161 160 155 155 156 154 146 145 143 124 96 61 4 4 5 1 354 11 11 2
292 289 291 294 284 236 203 190 178 174 168 164 162 153 152 155 151 155 159 162 163 156 159 156 150 151 154 149 147 146 147 138 122 118 109 17 14 9 11 7 356 1 359
292 288 290 283 261 214 196 189 185 186 176 171 174 159 161 159 159 152 149 150 154 153 149 144 145 147 151 151 145 144 142 131 124 128 86 40 24 17 15 10 1 1 354
294 291 283 259 221 195 173 156 190 186 179 171 164 156 155 150 147 157 160 157 156 158 146 151 154 158 159 154 150 149 145 141 135 137 112 64 34 30 16 11 8 9 352
283 283 269 230 180 158 144 129 117 128 151 152 153 153 152 150 161 166 160 154 162 154 146 152 158 161 157 154 153 151 149 144 138 140 123 89 54 50 25 13 11 9 357
291 271 229 172 147 140 132 131 131 132 131 130 146 150 155 153 157 157 154 153 146 153 151 157 158 162 159 158 157 153 150 150 146 147 144 140 90 59 37 13 16 7 354
355 52 107 118 123 129 126 122 121 132 134 136 130 131 141 147 150 150 149 146 152 151 156 157 164 166 166 163 163 161 164 164 166 163 159 178 124 78 52 12 17 8 2
60 76 91 94 98 99 102 102 118 121 127 131 129 130 131 133 134 138 145 147 147 151 165 170 174 175 173 174 173 173 171 178 186 184 190 195 174 125 86 39 28 360 18
67 68 75 72 71 79 87 93 97 102 101 106 117 132 136 134 133 134 140 151 164 166 172 179 182 182 183 182 180 178 179 182 190 194 200 204 197 174 149 95 32 357 18
61 60 63 66 73 76 79 84 86 90 99 106 109 116 123 125 132 145 157 166 167 171 186 188 188 188 191 191 191 190 188 191 197 202 207 210 203 197 187 175 185 265 33
58 58 59 60 64 69 70 76 85 91 97 102 107 115 124 131 147 156 163 170 186 184 189 192 196 195 195 198 201 204 204 205 206 209 217 208 202 192 195 198 192 207 221
52 54 56 56 58 60 63 66 76 88 96 102 109 115 122 133 145 160 172 189 200 204 208 210 205 202 203 206 212 218 222 224 222 221 224 208 199 198 201 199 202 199 207
54 50 51 52 52 54 58 59 61 64 69 74 78 83 84 91 113 152 180 202 214 216 211 209 214 219 228 229 229 233 237 233 230 227 221 215 207 202 200 199 202 204 204
53 54 53 52 50 51 53 55 56 58 60 66 73 75 76 82 88 96 106 129 154 171 187 209 221 227 231 233 236 249 248 240 232 229 218 213 207 203 202 201 207 204 205
Height
713 705 699 692 688 686 685 686 688 690 691 696 702 706 709 715 721 730 737 745 754 761 769 774 782 790 795 797 799 802 799 806 810 813 813 812 811 808 805 801 796 792 787
708 700 691 683 678 677 677 679 681 682 682 688 696 700 704 709 714 722 728 738 748 756 763 768 777 781 789 798 799 805 799 805 807 808 811 812 809 805 802 797 793 790 785
701 693 684 678 672 670 668 670 673 676 678 684 687 690 694 702 708 717 723 731 743 750 758 764 771 776 780 787 796 798 800 803 804 802 810 810 806 804 798 794 792 788 782
696 690 681 673 668 663 662 662 665 669 672 675 680 686 690 697 703 711 722 725 738 748 754 759 765 774 778 784 790 790 796 800 801 802 807 807 804 801 797 793 787 785 779
694 687 682 672 665 660 656 656 658 661 665 669 673 681 685 692 699 706 716 720 728 741 750 756 762 769 777 780 782 788 794 792 798 800 804 804 800 798 794 793 788 784 778
693 686 679 673 666 662 658 652 655 656 660 666 671 675 680 687 695 701 707 717 725 734 745 758 764 768 773 777 780 785 788 791 796 799 801 800 798 796 793 790 787 784 779
690 683 677 671 667 662 661 658 654 657 659 662 670 674 677 684 691 698 700 715 723 732 741 749 757 767 770 772 779 782 785 790 794 796 798 797 796 793 791 788 788 784 780
685 679 674 668 664 661 659 657 657 658 659 662 667 672 675 680 685 692 696 711 720 729 737 746 754 762 766 771 775 779 784 789 792 791 795 796 794 791 791 788 785 780 776
679 674 669 665 660 657 654 655 652 656 660 662 664 670 673 678 683 688 694 708 719 730 736 743 751 758 765 768 770 778 784 788 790 791 791 793 792 790 788 787 783 778 773
671 667 663 659 655 650 648 647 642 648 655 659 661 665 670 676 681 684 693 707 717 727 736 744 752 756 763 767 772 777 781 786 788 790 790 790 791 789 786 786 782 778 776
665 659 655 650 647 641 639 638 634 641 645 658 659 663 668 672 679 685 693 698 708 718 735 743 750 758 763 768 771 776 781 784 787 788 789 788 790 788 785 784 780 778 776
657 652 646 640 636 631 629 629 633 636 644 638 658 662 667 673 678 683 694 699 710 719 731 741 750 756 763 767 772 775 779 783 785 788 789 790 791 785 784 782 778 778 776
649 643 637 632 628 623 622 624 629 634 634 642 645 655 671 663 677 686 695 704 715 723 730 740 748 754 762 766 770 772 779 782 784 786 789 790 788 785 783 780 776 775 773
640 635 630 626 621 617 615 617 620 626 633 640 645 649 662 673 678 684 694 705 714 723 734 741 746 754 762 766 771 772 775 778 783 787 788 787 787 785 782 780 777 774 772
634 629 625 621 617 615 613 614 615 619 619 626 636 639 654 662 672 676 692 703 714 724 734 743 749 754 761 766 770 774 774 775 779 786 788 786 786 784 782 781 779 776 774
629 625 622 617 615 614 612 615 618 620 622 626 634 640 655 661 670 687 695 703 713 725 733 742 748 753 759 763 766 772 772 775 777 783 785 785 785 783 782 782 780 778 776
627 622 619 616 614 615 615 616 619 627 631 632 638 643 653 660 675 686 696 705 718 725 731 740 747 751 756 762 764 767 772 774 776 781 783 784 784 781 782 783 781 778 778
625 621 619 616 615 617 618 618 621 626 634 640 648 652 660 664 677 689 698 711 721 728 732 740 745 750 754 758 761 765 770 773 776 779 782 783 782 781 781 783 782 780 780
627 624 621 619 619 621 623 622 625 632 639 646 653 659 663 672 685 695 704 711 719 727 734 739 745 750 753 756 759 763 768 772 776 780 781 784 781 780 780 782 781 781 781
631 627 626 626 627 628 628 629 639 642 647 652 655 662 671 680 691 700 708 714 720 727 734 740 745 748 751 755 758 762 765 770 775 777 779 781 781 778 779 781 780 782 781
635 635 634 634 635 637 639 643 646 649 653 659 665 670 677 684 694 702 710 717 723 730 736 741 744 746 750 754 757 760 763 767 771 774 777 778 778 777 777 779 780 782 781
645 644 644 644 645 647 648 650 653 657 663 670 675 681 687 694 701 709 716 721 726 731 736 740 743 745 749 751 754 758 761 764 767 771 775 776 776 775 775 777 778 779 780
655 655 655 655 656 657 659 663 667 672 676 680 685 691 695 700 706 712 718 724 730 733 736 738 741 744 747 750 753 755 758 761 764 768 771 772 773 773 773 774 776 777 779
669 669 669 670 671 672 674 676 680 685 688 691 694 698 703 707 712 717 720 725 729 732 734 737 740 743 745 748 750 753 756 759 762 764 767 769 769 770 772 772 774 774 775
684 684 684 685 687 688 689 692 694 695 697 700 703 706 709 712 717 720 722 725 728 730 732 735 737 740 742 745 747 749 752 755 758 760 762 765 766 767 769 769 771 773 773
699 699 699 700 702 703 704 705 705 706 707 709 710 713 715 717 720 722 724 726 728 730 732 734 736 738 740 742 744 745 746 748 751 754 757 760 761 763 765 767 768 769 770